Weather History for Olivia, MN

Change the Weather History Date:

Wednesday, January 2, 2013

  Actual Average (KRWF) Record (KRWF)
Temperature  
Mean Temperature 20 °F -  
Max Temperature 30 °F 24 °F 47 °F (1998)
Min Temperature 10 °F 4 °F -21 °F (1974)
Degree Days  
Heating Degree Days 45    
Moisture  
Dew Point 15 °F    
Average Humidity 87    
Maximum Humidity 93    
Minimum Humidity 79    
Precipitation  
Precipitation 0.00 in - - ()
Sea Level Pressure  
Sea Level Pressure 29.97 in    
Wind  
Wind Speed 8 mph (SW)    
Max Wind Speed 23 mph    
Max Gust Speed 29 mph    
Visibility 7 miles    
Events Snow    
Averages and records for this station are not official NWS values.
T = Trace of Precipitation, MM = Missing Value Source: NWS Daily Summary

Daily Weather History Graph

Daily Weather History Graph

Search for Another Location

Airport:

Trip Planner

Search our weather history database for the weather conditions in past years. The results will help you decide how hot, cold, wet, or windy it might be!

Date:

Astronomy

Jan. 02, 2013 Rise Set
Actual Time 7:57 AM CST 4:51 PM CST
Civil Twilight 7:24 AM CST 5:24 PM CST
Nautical Twilight 6:47 AM CST 6:01 PM CST
Astronomical Twilight 6:11 AM CST 6:37 PM CST
Moon 10:40 PM CST (1/2) 10:25 AM CST (1/2)
Length of Visible Light 10h 00m
Length of Day
8h 53m
Waning Gibbous, 75% of the Moon is Illuminated
Jan 2
Waning Gibbous
Jan 4
Last Quarter
Jan 11
New
Jan 18
First Quarter
Jan 26
Full

Hourly Weather History & Observations

Time (CST) Temp. Windchill Dew Point Humidity Pressure Visibility Wind Dir Wind Speed Gust Speed Precip Events Conditions
12:11 AM 21.2 °F 11.7 °F 17.6 °F 86% 29.97 in 7.0 mi SSW 8.1 mph - N/A   Overcast
12:31 AM 19.4 °F 10.4 °F 15.8 °F 86% 29.97 in 7.0 mi SSW 6.9 mph - N/A   Scattered Clouds
12:51 AM 19.4 °F 10.4 °F 15.8 °F 86% 29.96 in 7.0 mi South 6.9 mph - N/A   Clear
1:11 AM 17.6 °F 9.3 °F 14.0 °F 86% 29.96 in 7.0 mi South 5.8 mph - N/A   Clear
1:31 AM 17.6 °F 9.3 °F 14.0 °F 86% 29.95 in 5.0 mi South 5.8 mph - N/A   Clear
1:51 AM 15.8 °F 8.6 °F 12.2 °F 86% 29.94 in 5.0 mi SSE 4.6 mph - N/A   Clear
2:11 AM 15.8 °F 7.2 °F 12.2 °F 86% 29.94 in 5.0 mi SSE 5.8 mph - N/A   Clear
2:31 AM 15.8 °F 6.1 °F 12.2 °F 86% 29.95 in 5.0 mi SSE 6.9 mph - N/A   Clear
2:51 AM 15.8 °F 6.1 °F 12.2 °F 86% 29.95 in 5.0 mi SSE 6.9 mph - N/A   Clear
3:30 AM 12.2 °F 2.9 °F 10.4 °F 92% 29.94 in 7.0 mi SSE 5.8 mph - N/A   Clear
3:51 AM 12.2 °F 1.7 °F 10.4 °F 92% 29.93 in 7.0 mi SSE 6.9 mph - N/A   Clear
4:10 AM 10.4 °F -0.4 °F 8.6 °F 92% 29.93 in 7.0 mi SSE 6.9 mph - N/A   Clear
4:31 AM 10.4 °F 2.2 °F 6.8 °F 85% 29.93 in 7.0 mi South 4.6 mph - N/A   Clear
4:51 AM 10.4 °F -0.4 °F 6.8 °F 85% 29.92 in 7.0 mi South 6.9 mph - N/A   Clear
5:10 AM 10.4 °F -0.4 °F 6.8 °F 85% 29.92 in 7.0 mi SSE 6.9 mph - N/A   Clear
5:31 AM 10.4 °F -0.4 °F 6.8 °F 85% 29.92 in 5.0 mi SSE 6.9 mph - N/A   Clear
6:10 AM 10.4 °F 0.8 °F 6.8 °F 85% 29.91 in 5.0 mi SSE 5.8 mph - N/A   Clear
6:31 AM 10.4 °F 0.8 °F 5.0 °F 79% 29.91 in 5.0 mi SSE 5.8 mph - N/A   Clear
6:51 AM 10.4 °F 2.2 °F 5.0 °F 79% 29.91 in 7.0 mi SSE 4.6 mph - N/A   Clear
7:11 AM 10.4 °F 2.2 °F 6.8 °F 85% 29.92 in 7.0 mi South 4.6 mph - N/A   Mostly Cloudy
7:31 AM 10.4 °F 4.0 °F 6.8 °F 85% 29.92 in 7.0 mi South 3.5 mph - N/A   Overcast
7:50 AM 12.2 °F 6.1 °F 8.6 °F 85% 29.92 in 5.0 mi South 3.5 mph - N/A   Overcast
8:11 AM 12.2 °F 4.3 °F 10.4 °F 92% 29.92 in 5.0 mi SSW 4.6 mph - N/A   Overcast
8:31 AM 15.8 °F 8.6 °F 12.2 °F 86% 29.92 in 5.0 mi South 4.6 mph - N/A Snow Light Snow
8:50 AM 15.8 °F 10.2 °F 12.2 °F 86% 29.92 in 3.0 mi South 3.5 mph - N/A Snow Light Snow
9:11 AM 15.8 °F 10.2 °F 12.2 °F 86% 29.93 in 2.5 mi South 3.5 mph - N/A Snow Light Snow
9:31 AM 15.8 °F 10.2 °F 12.2 °F 86% 29.93 in 1.5 mi South 3.5 mph - N/A Snow Light Snow
9:51 AM 15.8 °F 10.2 °F 12.2 °F 86% 29.93 in 1.2 mi South 3.5 mph - N/A Snow Light Snow
10:11 AM 17.6 °F 12.3 °F 14.0 °F 86% 29.94 in 2.0 mi South 3.5 mph - N/A Snow Light Snow
10:30 AM 17.6 °F 12.3 °F 14.0 °F 86% 29.93 in 2.5 mi South 3.5 mph - N/A Snow Light Snow
10:51 AM 17.6 °F 10.7 °F 15.8 °F 93% 29.93 in 2.5 mi South 4.6 mph - N/A Snow Light Snow
11:11 AM 17.6 °F 10.7 °F 15.8 °F 93% 29.93 in 4.0 mi SSE 4.6 mph - N/A   Overcast
11:30 AM 17.6 °F 12.3 °F 15.8 °F 93% 29.92 in 7.0 mi South 3.5 mph - N/A   Overcast
11:51 AM 19.4 °F 14.3 °F 15.8 °F 86% 29.92 in 7.0 mi South 3.5 mph - N/A   Overcast
12:11 PM 21.2 °F 13.6 °F 17.6 °F 86% 29.92 in 5.0 mi South 5.8 mph - N/A   Overcast
12:30 PM 21.2 °F 14.9 °F 19.4 °F 93% 29.91 in 2.0 mi SW 4.6 mph - N/A   Overcast
12:51 PM 23.0 °F 18.4 °F 19.4 °F 86% 29.90 in 2.5 mi SW 3.5 mph - N/A   Overcast
1:11 PM 23.0 °F 17.0 °F 21.2 °F 93% 29.91 in 2.5 mi West 4.6 mph - N/A   Overcast
1:31 PM 26.6 °F 19.1 °F 23.0 °F 86% 29.91 in 4.0 mi West 6.9 mph - N/A   Overcast
1:51 PM 28.4 °F 20.4 °F 26.6 °F 93% 29.92 in 7.0 mi West 8.1 mph - N/A   Overcast
2:10 PM 30.2 °F 21.9 °F 28.4 °F 93% 29.92 in 10.0 mi NW 9.2 mph - N/A   Overcast
2:31 PM 30.2 °F 21.3 °F 26.6 °F 86% 29.93 in 10.0 mi NW 10.4 mph - N/A   Overcast
2:51 PM 30.2 °F 23.4 °F 26.6 °F 86% 29.94 in 10.0 mi NW 6.9 mph - N/A   Overcast
3:11 PM 30.2 °F 23.4 °F 26.6 °F 86% 29.94 in 10.0 mi NW 6.9 mph - N/A   Overcast
3:31 PM 30.2 °F 24.3 °F 26.6 °F 86% 29.95 in 10.0 mi NW 5.8 mph - N/A   Overcast
3:51 PM 30.2 °F 18.9 °F 26.6 °F 86% 29.95 in 10.0 mi NW 16.1 mph - N/A   Overcast
4:10 PM 30.2 °F 19.3 °F 26.6 °F 86% 29.97 in 10.0 mi NW 15.0 mph 21.9 mph N/A   Overcast
4:31 PM 30.2 °F 19.3 °F 26.6 °F 86% 29.98 in 10.0 mi NW 15.0 mph 19.6 mph N/A   Overcast
4:51 PM 28.4 °F 16.6 °F 23.0 °F 80% 29.98 in 10.0 mi NW 16.1 mph - N/A   Overcast
5:11 PM 26.6 °F 15.2 °F 23.0 °F 86% 29.99 in 10.0 mi NW 13.8 mph - N/A   Mostly Cloudy
5:31 PM 24.8 °F 14.0 °F 21.2 °F 86% 30.00 in 10.0 mi NW 11.5 mph - N/A   Scattered Clouds
5:51 PM 23.0 °F 11.7 °F 19.4 °F 86% 30.01 in 10.0 mi NW 11.5 mph - N/A   Mostly Cloudy
6:11 PM 21.2 °F 10.9 °F 19.4 °F 93% 30.01 in 10.0 mi NW 9.2 mph - N/A   Scattered Clouds
6:31 PM 21.2 °F 12.6 °F 19.4 °F 93% 30.03 in 10.0 mi NW 6.9 mph - N/A   Scattered Clouds
6:50 PM 23.0 °F 14.7 °F 19.4 °F 86% 30.03 in 10.0 mi NW 6.9 mph - N/A   Mostly Cloudy
7:11 PM 21.2 °F 12.6 °F 19.4 °F 93% 30.04 in 10.0 mi WNW 6.9 mph - N/A   Mostly Cloudy
7:31 PM 21.2 °F 10.1 °F 19.4 °F 93% 30.04 in 10.0 mi NW 10.4 mph - N/A   Mostly Cloudy
8:11 PM 21.2 °F 8.3 °F 17.6 °F 86% 30.06 in 10.0 mi NW 13.8 mph 18.4 mph N/A   Clear
8:31 PM 17.6 °F 5.7 °F 14.0 °F 86% 30.07 in 10.0 mi NW 10.4 mph - N/A   Clear
8:50 PM 17.6 °F 3.2 °F 14.0 °F 86% 30.08 in 10.0 mi NW 15.0 mph 19.6 mph N/A   Scattered Clouds
9:11 PM 17.6 °F 0.5 °F 12.2 °F 79% 30.08 in 7.0 mi NW 21.9 mph - N/A   Scattered Clouds
9:31 PM 15.8 °F -2.3 °F 10.4 °F 79% 30.10 in 7.0 mi NW 23.0 mph 28.8 mph N/A   Clear
9:50 PM 15.8 °F 0.9 °F 10.4 °F 79% 30.11 in 10.0 mi NW 15.0 mph 26.5 mph N/A   Clear
10:11 PM 14.0 °F -3.0 °F 10.4 °F 86% 30.11 in 10.0 mi NW 18.4 mph 24.2 mph N/A   Clear
10:31 PM 12.2 °F -5.3 °F 8.6 °F 85% 30.12 in 10.0 mi NW 18.4 mph 24.2 mph N/A   Clear
10:50 PM 12.2 °F -3.7 °F 8.6 °F 85% 30.13 in 10.0 mi NW 15.0 mph 23.0 mph N/A   Clear
11:11 PM 12.2 °F -4.8 °F 8.6 °F 85% 30.13 in 7.0 mi NW 17.3 mph - N/A   Clear
11:30 PM 12.2 °F -3.1 °F 6.8 °F 79% 30.13 in 7.0 mi NW 13.8 mph 24.2 mph N/A   Mostly Cloudy
11:51 PM 12.2 °F -5.8 °F 6.8 °F 79% 30.13 in 5.0 mi NW 19.6 mph 26.5 mph N/A   Haze